• en Belgique
  • Liste des pays
  • À 7 jours
  • Température de l'eau
  • Carte satellitaire
  • Carte météo
  • Widgets météo
  • user-avatar
    Se connecter

    Météo par heure à Alost

    Ce jour, 25 Avril, Mercredi

    Heure Température Précipitation Vent Pression Humidité
    00:00 +13°C° 0 mm 5 m/s 755 mmHg 87%
    01:00 +11°C° 0,1 mm 6 m/s 755 mmHg 87%
    02:00 +11°C° 0,1 mm 6 m/s 755 mmHg 87%
    03:00 +11°C° 0,1 mm 7 m/s 755 mmHg 87%
    04:00 +11°C° 0,1 mm 7 m/s 755 mmHg 86%
    05:00 +11°C° 0,1 mm 6 m/s 756 mmHg 85%
    06:00 +10°C° 0,1 mm 6 m/s 756 mmHg 84%
    07:00 +11°C° 0,1 mm 6 m/s 756 mmHg 81%
    08:00 +11°C° 0,1 mm 6 m/s 757 mmHg 77%
    09:00 +13°C° 0,1 mm 6 m/s 757 mmHg 73%
    10:00 +13°C° 0,1 mm 6 m/s 757 mmHg 69%
    11:00 +14°C° 0,1 mm 6 m/s 757 mmHg 65%
    12:00 +14°C° 0,1 mm 7 m/s 758 mmHg 62%
    13:00 +14°C° 0,2 mm 7 m/s 758 mmHg 60%
    14:00 +14°C° 0,2 mm 7 m/s 757 mmHg 58%
    15:00 +13°C° 0,2 mm 8 m/s 757 mmHg 56%
    16:00 +12°C° 0,1 mm 7 m/s 758 mmHg 60%
    17:00 +11°C° 0,1 mm 7 m/s 758 mmHg 65%
    18:00 +10°C° 0,1 mm 6 m/s 758 mmHg 69%
    19:00 +9°C° 0,1 mm 6 m/s 758 mmHg 72%
    20:00 +9°C° 0,1 mm 6 m/s 759 mmHg 75%
    21:00 +8°C° 0,1 mm 6 m/s 759 mmHg 78%
    22:00 +8°C° 0 mm 6 m/s 759 mmHg 79%
    23:00 +7°C° 0 mm 6 m/s 759 mmHg 80%

    Demain, 26 Avril, Jeudi

    Heure Température Précipitation Vent Pression Humidité
    00:00 +7°C° 0 mm 6 m/s 759 mmHg 82%
    01:00 +7°C° 0 mm 6 m/s 759 mmHg 81%
    02:00 +7°C° 0 mm 6 m/s 759 mmHg 81%
    03:00 +5°C° 0 mm 6 m/s 759 mmHg 80%
    04:00 +7°C° 0 mm 6 m/s 760 mmHg 79%
    05:00 +7°C° 0 mm 6 m/s 760 mmHg 78%
    06:00 +7°C° 0 mm 6 m/s 760 mmHg 77%
    07:00 +8°C° 0 mm 7 m/s 761 mmHg 72%
    08:00 +9°C° 0 mm 7 m/s 761 mmHg 67%
    09:00 +11°C° 0 mm 7 m/s 761 mmHg 61%
    10:00 +11°C° 0,1 mm 7 m/s 761 mmHg 58%
    11:00 +12°C° 0,1 mm 7 m/s 761 mmHg 55%
    12:00 +14°C° 0,1 mm 7 m/s 761 mmHg 52%
    13:00 +14°C° 0,1 mm 7 m/s 761 mmHg 52%
    14:00 +14°C° 0,1 mm 7 m/s 761 mmHg 52%
    15:00 +14°C° 0,1 mm 7 m/s 761 mmHg 52%
    16:00 +13°C° 0 mm 6 m/s 761 mmHg 56%
    17:00 +12°C° 0 mm 5 m/s 761 mmHg 60%
    18:00 +11°C° 0 mm 4 m/s 761 mmHg 65%
    19:00 +10°C° 0 mm 4 m/s 761 mmHg 68%
    20:00 +9°C° 0 mm 3 m/s 761 mmHg 70%
    21:00 +7°C° 0 mm 3 m/s 761 mmHg 73%
    22:00 +7°C° 0 mm 3 m/s 761 mmHg 74%
    23:00 +7°C° 0 mm 3 m/s 760 mmHg 76%

    Après-demain, 27 Avril, Vendredi

    Heure Température Précipitation Vent Pression Humidité
    00:00 +5°C° 0 mm 3 m/s 760 mmHg 77%
    01:00 +7°C° 0 mm 3 m/s 759 mmHg 76%
    02:00 +7°C° 0 mm 3 m/s 759 mmHg 75%
    03:00 +7°C° 0 mm 2 m/s 758 mmHg 74%
    04:00 +7°C° 0 mm 3 m/s 757 mmHg 74%
    05:00 +8°C° 0 mm 3 m/s 757 mmHg 74%
    06:00 +7°C° 0 mm 4 m/s 756 mmHg 74%
    07:00 +9°C° 0 mm 5 m/s 756 mmHg 71%
    08:00 +10°C° 0 mm 5 m/s 756 mmHg 68%
    09:00 +11°C° 0 mm 6 m/s 755 mmHg 65%
    10:00 +12°C° 0 mm 7 m/s 755 mmHg 62%
    11:00 +14°C° 0 mm 7 m/s 754 mmHg 60%
    12:00 +16°C° 0 mm 8 m/s 753 mmHg 57%
    13:00 +15°C° 0,1 mm 8 m/s 753 mmHg 59%
    14:00 +15°C° 0,1 mm 9 m/s 752 mmHg 61%
    15:00 +15°C° 0,1 mm 9 m/s 752 mmHg 63%
    16:00 +13°C° 0,1 mm 9 m/s 752 mmHg 64%
    17:00 +12°C° 0,1 mm 9 m/s 752 mmHg 65%
    18:00 +11°C° 0,1 mm 10 m/s 752 mmHg 66%
    19:00 +10°C° 0 mm 9 m/s 753 mmHg 67%
    20:00 +10°C° 0 mm 9 m/s 753 mmHg 68%
    21:00 +8°C° 0 mm 9 m/s 754 mmHg 69%
    22:00 +9°C° 0 mm 8 m/s 755 mmHg 71%
    23:00 +7°C° 0 mm 8 m/s 755 mmHg 73%

    28 Avril, Samedi

    Heure Température Précipitation Vent Pression Humidité
    00:00 +8°C° 0 mm 7 m/s 756 mmHg 76%
    01:00 +8°C° 0 mm 7 m/s 756 mmHg 75%
    02:00 +7°C° 0 mm 6 m/s 757 mmHg 75%
    03:00 +7°C° 0 mm 6 m/s 758 mmHg 75%
    04:00 +7°C° 0 mm 5 m/s 758 mmHg 77%
    05:00 +7°C° 0 mm 5 m/s 759 mmHg 78%
    06:00 +7°C° 0 mm 5 m/s 759 mmHg 80%
    07:00 +8°C° 0 mm 4 m/s 760 mmHg 75%
    08:00 +10°C° 0 mm 4 m/s 760 mmHg 69%
    09:00 +11°C° 0 mm 4 m/s 760 mmHg 64%
    10:00 +12°C° 0 mm 3 m/s 761 mmHg 59%
    11:00 +12°C° 0 mm 3 m/s 761 mmHg 54%
    12:00 +13°C° 0 mm 3 m/s 761 mmHg 49%
    13:00 +13°C° 0 mm 3 m/s 760 mmHg 48%
    14:00 +14°C° 0 mm 3 m/s 760 mmHg 47%
    15:00 +14°C° 0 mm 3 m/s 760 mmHg 46%
    16:00 +13°C° 0 mm 3 m/s 760 mmHg 51%
    17:00 +12°C° 0 mm 3 m/s 760 mmHg 56%
    18:00 +11°C° 0 mm 3 m/s 760 mmHg 60%
    19:00 +10°C° 0 mm 3 m/s 760 mmHg 61%
    20:00 +9°C° 0 mm 3 m/s 760 mmHg 62%
    21:00 +7°C° 0 mm 4 m/s 761 mmHg 63%
    22:00 +7°C° 0 mm 4 m/s 760 mmHg 66%
    23:00 +7°C° 0 mm 4 m/s 760 mmHg 68%

    29 Avril, Dimanche

    Heure Température Précipitation Vent Pression Humidité
    00:00 +6°C° 0 mm 4 m/s 760 mmHg 71%
    01:00 +7°C° 0 mm 4 m/s 759 mmHg 71%
    02:00 +7°C° 0 mm 5 m/s 759 mmHg 72%
    03:00 +7°C° 0 mm 5 m/s 759 mmHg 72%
    04:00 +7°C° 0,3 mm 5 m/s 758 mmHg 75%
    05:00 +7°C° 0,3 mm 6 m/s 758 mmHg 78%
    06:00 +7°C° 0,3 mm 6 m/s 758 mmHg 80%
    07:00 +6°C° 2,5 mm 7 m/s 757 mmHg 84%
    08:00 +6°C° 2,5 mm 7 m/s 757 mmHg 87%
    09:00 +6°C° 2,5 mm 7 m/s 757 mmHg 91%
    10:00 +6°C° 0,2 mm 7 m/s 757 mmHg 88%
    11:00 +8°C° 0,2 mm 7 m/s 756 mmHg 86%
    12:00 +9°C° 0,2 mm 8 m/s 756 mmHg 84%
    13:00 +10°C° 0,2 mm 8 m/s 755 mmHg 83%
    14:00 +10°C° 0,2 mm 7 m/s 755 mmHg 83%
    15:00 +11°C° 0,2 mm 7 m/s 754 mmHg 82%
    16:00 +11°C° 0,6 mm 7 m/s 754 mmHg 85%
    17:00 +10°C° 0,6 mm 7 m/s 754 mmHg 87%
    18:00 +10°C° 0,6 mm 7 m/s 754 mmHg 90%
    19:00 +10°C° 0,2 mm 7 m/s 754 mmHg 91%
    20:00 +9°C° 0,2 mm 6 m/s 754 mmHg 92%
    21:00 +9°C° 0,2 mm 6 m/s 754 mmHg 93%
    22:00 +9°C° 0,1 mm 5 m/s 754 mmHg 93%
    23:00 +9°C° 0,1 mm 5 m/s 753 mmHg 94%

    30 Avril, Lundi

    Heure Température Précipitation Vent Pression Humidité
    00:00 +11°C° 0,1 mm 4 m/s 753 mmHg 94%
    01:00 +11°C° 0,9 mm 4 m/s 753 mmHg 95%
    02:00 +11°C° 0,9 mm 4 m/s 753 mmHg 96%
    03:00 +11°C° 0,9 mm 3 m/s 753 mmHg 96%
    04:00 +10°C° 0,8 mm 5 m/s 752 mmHg 96%
    05:00 +10°C° 0,8 mm 6 m/s 752 mmHg 95%
    06:00 +10°C° 0,8 mm 7 m/s 752 mmHg 95%
    07:00 +10°C° 0,5 mm 7 m/s 752 mmHg 94%
    08:00 +10°C° 0,5 mm 7 m/s 752 mmHg 92%
    09:00 +11°C° 0,5 mm 7 m/s 752 mmHg 91%
    10:00 +11°C° 0,7 mm 7 m/s 752 mmHg 91%
    11:00 +13°C° 0,7 mm 6 m/s 752 mmHg 90%
    12:00 +13°C° 0,7 mm 6 m/s 752 mmHg 90%
    13:00 +13°C° 0,3 mm 6 m/s 752 mmHg 89%
    14:00 +13°C° 0,3 mm 6 m/s 753 mmHg 87%
    15:00 +13°C° 0,3 mm 6 m/s 753 mmHg 86%
    16:00 +13°C° 0,1 mm 5 m/s 753 mmHg 85%
    17:00 +13°C° 0,1 mm 4 m/s 753 mmHg 85%
    18:00 +13°C° 0,1 mm 3 m/s 753 mmHg 85%
    19:00 +12°C° 0 mm 3 m/s 754 mmHg 87%
    20:00 +11°C° 0 mm 3 m/s 754 mmHg 89%
    21:00 +10°C° 0 mm 2 m/s 755 mmHg 92%
    22:00 +10°C° 0 mm 2 m/s 755 mmHg 92%
    23:00 +9°C° 0 mm 2 m/s 755 mmHg 92%
    Voir plus